SL-14 R/B, 17178

Orbit data source: Space-Track

SL-14 R/B, 17178 is space debris in LEO originally from a launch on Tue, 02 Dec 1986 UTC launched from the Plesetsk Missile And Space Complex (PKMTR). Debris objects in space refer to the collection of defunct objects orbiting the Earth. Examples of debris include non-operational satellites, rocket bodies, and fragments generated from explosions, collisions, or faulty payload assembly.

Loading next visibility...
SL-14 R/B details
Identifier
17178, 1986-094B
Orbit
LEO
Last TLE update8 hours ago
Origin
Flag of CISUNKS (CIS)
ManufacturerYuzhnoe
MissionSpacecraft
Bus & MotorS5M, Unknown motor
Mass1,600 kg wet, 1,600 kg dry
Launch date (UTC)
1986-12-02 (38 years ago)
Launch vehicleUnknown
Launch site
Plesetsk Missile And Space Complex (PKMTR)
Object type
Payload
Rocket body
Debris
Shape & HBRCyl, 2.7 m
Radar Cross Section7.351 m², Large (>1 m²)

Expand to show TLE details & history

TLE from 8 hours ago
0 SL-14 R/B
1 17178U 86094B   24361.46954704  .00000019  00000-0  64672-4 0  9995
2 17178  82.6071 331.5962 0002069 186.8124 297.2624 12.42047642725857
Epoch: 2024-12-26T11:16Z
Definitive object data (Epoch: 2024-12-26T11:16:08.864Z)
Latitude55.33846°
Longitude-123.65162°
Altitude1,506.3 km
Speed7.117 km/s
True Right ascension09h 23m 20s
True Declination55° 11' 34"
Sunlit
Object was in full shadow at TLE epoch
Visualization TLE readout
Latitude25.90632°
Longitude-116.68604°
Altitude1,499.533 km
Speed7.117 km/s
Apparent Right ascension08h 31m 07s
Apparent Declination-3° 23' 11"
Sunlit
Object is in full shadow
Visualization observer readout
Local Sidereal Time18:32:21
Azimuth315.946° NNW
Elevation-44.668°
Doppler factor1
Orbital elements
Apogee altitude1,496.912 km
Perigee altitude1,493.654 km
Semi-major axis7,873.42 km
Eccentricity0.0002069
Inclination82.6071°
RAAN331.5962°
Arg. of periapsis186.8124°
True anomaly297.24132°
Mean anomaly297.2624°
Eccentric anomaly297.25186°
Mean motion3.10669 °/min
BSTAR0.000064672
Orbital period115.88 mins
Loading maneuver chart data...
Loading historical data...
Loading historical data...
Loading historical data...
Loading historical data...
Loading historical data...
Loading historical data...
Loading historical data...
Other satellites on launch #94 in the year 1986 (1986-12-02 UTC)

SL-14 R/B Visibility forecast

Observer location: undefined°, undefined

Span
Click to sort rows by Start time (UTC) header in descending order
Start Az.
Max El. time (UTC)
Max El. Az.
Max El.
End time (UTC)
End Az.
16 mins2024-12-26 22:16:44.126Z162.084° S2024-12-26 22:24:44.126Z95.347° ESE38.308°2024-12-26 22:32:44.126Z18.237° NNE
14 mins2024-12-27 00:15:44.126Z232.146° WSW2024-12-27 00:21:44.126Z283.621° WNW28.93°2024-12-27 00:29:44.126Z350.759° N
11 mins2024-12-27 08:30:44.126Z25.948° NE2024-12-27 08:35:44.126Z68.682° E22.516°2024-12-27 08:41:44.126Z115.478° SE
16 mins2024-12-27 10:25:44.126Z347.07° N2024-12-27 10:32:44.126Z288.635° WNW43.206°2024-12-27 10:41:44.126Z185.419° SSW
4 mins2024-12-27 12:26:44.126Z297.717° NW2024-12-27 12:28:44.126Z283.685° WNW11.531°2024-12-27 12:30:44.126Z269.91° W
|